Flag for United Kingdom Weather past 2 weeks in London, England, United Kingdom

Now
45 °F

Low clouds.


Feels Like: 38 °F
Forecast: 41 / 52 °F
Wind: 15 mph from Southwest

Location: Northolt

Current Time: Feb 28, 2015 at 7:38:39 AM

Latest Report: Feb 28, 2015 at 6:50 AM


Visibility: N/A

Pressure: 29.86 "Hg

Humidity: 81%

Dew point: 39 °F

Location of LondonLocation

Historic Weather in London — Graph

°F

London temperature yesterday

Maximum temperature yesterday: 50 °F (at 2:50 PM)
Minimum temperature yesterday: 32 °F (at 4:50 AM)
Average temperature yesterday: 40 °F

Past Weeks' High & Low Weather Summary

 TemperatureHumidityPressure
High54 °F (Feb 25, 3:50 PM)100% (Feb 15, 11:50 PM)30.74 "Hg (Feb 15, 11:50 PM)
Low27 °F (Feb 22, 5:50 AM)40% (Feb 24, 3:50 PM)29.24 "Hg (Feb 22, 9:50 PM)
Average42 °F81%29.88 "Hg
* Reported Feb 13 5:50 AM — Feb 28 5:50 AM, London, Weather by CustomWeather, © 2015

Note: Actual official high and low records may vary slightly from our data, if they occured in-between our weather recording intervals... More about our weather records

Advertising

London weather history for previous 24 hours

 ConditionsComfort  
Time TempWeatherWind HumidityBarometerVisibility
5:50 AM
Sat, Feb 28
45 °FPassing clouds.13 mph76%29.89 "HgN/A
4:50 AM45 °FOvercast.14 mph71%29.92 "HgN/A
3:50 AM43 °FOvercast.13 mph81%29.95 "HgN/A
2:50 AM43 °FPassing clouds.13 mph87%29.98 "HgN/A
1:50 AM43 °FPartly cloudy.12 mph87%30.01 "HgN/A
12:50 AM43 °FPassing clouds.9 mph81%30.01 "HgN/A
11:50 PM
Fri, Feb 27
41 °FPassing clouds.7 mph81%30.04 "HgN/A
10:50 PM41 °FClear.8 mph76%30.07 "Hg10 mi
9:50 PM41 °FClear.7 mph76%30.07 "Hg10 mi
8:50 PM41 °FClear.8 mph76%30.09 "Hg10 mi
7:50 PM43 °FClear.8 mph71%30.09 "Hg10 mi
6:50 PM43 °FClear.5 mph61%30.12 "Hg10 mi
5:50 PM45 °FClear.6 mph53%30.12 "Hg10 mi
4:50 PM46 °FScattered clouds.10 mph46%30.09 "HgN/A
3:50 PM48 °FBroken clouds.9 mph46%30.09 "HgN/A
2:50 PM50 °FBroken clouds.10 mph43%30.09 "HgN/A
1:50 PM46 °FScattered clouds.10 mph46%30.12 "HgN/A
12:50 PM46 °FPassing clouds.13 mph50%30.12 "HgN/A
11:50 AM46 °FPassing clouds.9 mph53%30.12 "HgN/A
10:50 AM45 °FPassing clouds.3 mph61%30.12 "HgN/A
9:50 AM41 °FPassing clouds.5 mph70%30.12 "HgN/A
8:50 AM37 °FSunny.3 mph75%30.12 "Hg10 mi
7:50 AM34 °FSunny.6 mph87%30.09 "Hg10 mi
Weather by CustomWeather, © 2015

See weather overviewHow to use our weather pages